Other Surface Observations
Issued by NWS

Home | Current Version | Previous Version | Text Only | Print | Product List | Glossary On
Versions: 1 2 3 4 5 6 7 8 9 10 11 12 13 14 15 16 17 18 19 20 21 22 23 24 25 26 27 28 29 30 31 32 33 34 35 36 37 38 39 40 41 42 43 44 45 46 47 48 49 50
761
SXUS52 KTAE 271019
OSOTAE
OSOTAE
North Florida/South Alabama/Southwest Georgia Weather Roundup
National Weather Service Tallahassee Florida
600 AM EDT TUE SEP 27 2016

Note: "fair" indicates few or no clouds below 12,000 feet with no
significant weather and/or obstructions to visibility.

!FLZ017-115-028-034-025-271100
...North Florida...

CITY           SKY/WX    TMP DP  RH WIND       PRES   REMARKS
TALLAHASSEE    CLEAR     72  70  93 NW3       29.94S
APALACHICOLA   CLEAR     71  71 100 E3        29.92S
PERRY          CLEAR     70  69  95 CALM      29.93F
CROSS CITY     CLEAR     70  70 100 CALM      29.92S
JACKSONVILLE   PTCLDY    70  70 100 N8        29.91S
$$

!FLZ112-006-005-002-011-271100
...Florida Panhandle...

CITY           SKY/WX    TMP DP  RH WIND       PRES   REMARKS
MARIANNA       CLEAR     69  69 100 SW3       29.94R
BONIFAY        FAIR      67  66  97 CALM      29.96R
PANAMA CITY NW NOT AVBL
TYNDALL AFB    CLEAR     72  70  93 NE3       29.93S
TYND DRONE APT FAIR      71  70  97 NE5       29.93S
DE FUNIAK SPR  FAIR      68  68 100 CALM      29.95S
EGLIN AFB      CLEAR     69  67  93 CALM      29.93S
DESTIN         CLEAR     75  71  87 CALM      29.93S
HURLBURT       CLEAR     69  68  97 NE3       29.93R
CRESTVIEW      CLEAR     67  65  93 CALM      29.96R
PENSACOLA      CLEAR     73  70  90 CALM      29.93R
$$

!ALZ063-066-271100
...South Alabama...

CITY           SKY/WX    TMP DP  RH WIND       PRES   REMARKS
DOTHAN         CLEAR     69  69 100 CALM      29.98S
OZARK CAIRNS   CLEAR     68  68 100 CALM      29.94S
FT RUCKER HELI CLOUDY    68  67  96 CALM      29.94S FOG
RUCKER HELI 3  NOT AVBL
RUCKER HELI 2  NOT AVBL
FLORALA APT    NOT AVBL
ANDALUSIA      PTCLDY    71  67  87 CALM      29.94F FOG
TROY           CLEAR     65  65 100 CALM      29.94F
EUFALA         FAIR      66  64  93 CALM      29.93F
MOBILE         CLEAR     69  68  96 CALM      29.94S
$$

!GAZ120>161-271100
...Southwest and South Central Georgia...

CITY           SKY/WX    TMP DP  RH WIND       PRES   REMARKS
THOMASVILLE    FAIR      70  70 100 CALM      29.96S
BAINBRIDGE     CLEAR     70  68  94 CALM      29.95S
MOODY AFB      CLEAR     67  65  95 CALM      29.93F
VALDOSTA       CLEAR     67  67 100 CALM      29.94F
MOULTRIE       CLEAR     68  68 100 CALM      29.96F
BLAKELY        CLEAR     68  66  94 CALM      29.95F
ALBANY         CLEAR     69  67  93 CALM      29.97S
TIFTON         FAIR      67  67 100 CALM      29.95F FOG
FITZGERALD     FAIR      70  70 100 CALM      29.99S FOG
CORDELE        FAIR      70  68  95 CALM      29.97S
AMERICUS       FAIR      66  66 100 CALM      29.97F
HOMERVILLE     FAIR      66  66 100 CALM      29.95S
$$

!GMZ750-755-770-775-271100
...Coastal and Buoy Obs...

STATION/POSITION TIME  TEMP    WIND        PRES    VSBY  WAVE
                       AIR SEA DIR/SP/G                  HT/PER
                 (UTC) (F)     (DEG/KT/KT) (MB)    (MI)  (FT/S)
KEATON BEACH     1000   71      40/  3/  5 1012.9F
CEDAR KEY        1000   74      20/  3/  4 1013.4S
C TOWER          1000   79      80/  2/  5 1013.7F
APALACHICOLA BUO 0950   83 85  330/  6/  8 1012.9R         0
PANAMA CITY BUOY 0950   82 85              1013.4F         1
MOBILE BUOY      1000   82 85  240/  4/  4 1013.0S
ORANGE BCH AL BU 0950   81 85   30/  2/  2 1013.2S         1
$$




USA.gov is the U.S. government's official web portal to all federal, state and local government web resources and services.